Date String (YYYY-MM-DD hh:mm:ss) UTC,Instrument flags,Ambient pressure (hPa),Sample flow (lpm),Bypass flow (lpm),Sample temperature (°C),Ambient temperature (°C),ASC tube jacket temperature (°C),LED temperature (°C),Box temperature (°C),Sample RH (%),Span deviation,Mass concentration (μg/m³),Mass concentration (μg/m³),Mass concentration (μg/m³)
DateTimeUTC,F1_M11,P_M11,Q1_M11,Q2_M11,T1_M11,T2_M11,T3_M11,T4_M11,T5_M11,U1_M11,ZSPAN_M11,X0_M11,X2_M11,X1_M11
2022-08-01 17:00:00,,0829.5,5.00,0.00,29.5,27.5,00.0,38.2,31.3,27.0,0000.0,0015.43,0006.20,0005.72
2022-08-01 17:01:00,,0829.5,5.01,0.00,29.5,27.3,00.0,38.2,31.2,27.8,0000.0,0015.47,0006.18,0005.68
2022-08-01 17:02:00,,0829.4,5.00,0.00,29.4,27.4,00.0,38.2,31.2,28.1,0000.0,0015.54,0006.17,0005.65
2022-08-01 17:03:00,,0829.4,5.00,0.00,29.4,27.5,00.0,38.2,31.1,27.7,0000.0,0015.48,0006.16,0005.65
2022-08-01 17:04:00,,0829.5,5.00,0.00,29.4,27.7,00.0,38.2,31.2,28.3,0000.0,0016.34,0006.27,0005.69
2022-08-01 17:05:00,,0829.4,5.00,0.00,29.4,27.9,00.0,38.2,31.3,28.9,0000.0,0017.88,0006.39,0005.77
2022-08-01 17:06:00,,0829.5,5.01,0.00,29.4,28.0,00.0,38.2,31.3,28.6,0000.0,0020.44,0006.45,0005.84
2022-08-01 17:07:00,,0829.5,4.99,0.00,29.5,28.2,00.0,38.2,31.4,28.5,0000.0,0021.94,0006.52,0005.87
2022-08-01 17:08:00,,0829.5,5.00,0.00,29.5,28.3,00.0,38.2,31.5,29.1,0000.0,0020.89,0006.57,0005.95
2022-08-01 17:09:00,,0829.4,4.99,0.00,29.5,27.9,00.0,38.2,31.4,29.5,0000.0,0016.78,0006.61,0006.04
2022-08-01 17:10:00,,0829.4,5.02,0.00,29.5,27.4,00.0,38.2,31.3,30.1,0000.0,0016.80,0006.72,0006.14
2022-08-01 17:11:00,,0829.4,5.00,0.00,29.5,27.4,00.0,38.2,31.3,30.4,0000.0,0016.66,0006.84,0006.24
2022-08-01 17:12:00,,0829.3,5.00,0.00,29.4,27.5,00.0,38.2,31.2,31.0,0000.0,0016.79,0006.95,0006.37
2022-08-01 17:13:00,,0829.4,5.01,0.00,29.4,27.6,00.0,38.2,31.2,31.9,0000.0,0018.58,0007.09,0006.50
2022-08-01 17:14:00,,0829.3,5.00,0.00,29.4,27.8,00.0,38.2,31.2,32.0,0000.0,0019.76,0007.26,0006.61
2022-08-01 17:15:00,,0829.3,4.99,0.00,29.4,28.0,00.0,38.2,31.3,31.8,0000.0,0018.94,0007.31,0006.71
2022-08-01 17:16:00,,0829.4,5.00,0.00,29.5,28.1,00.0,38.2,31.4,32.4,0000.0,0017.45,0007.36,0006.77
2022-08-01 17:17:00,,0829.3,5.00,0.00,29.5,28.3,00.0,38.2,31.4,32.0,0000.0,0015.79,0007.46,0006.86
2022-08-01 17:18:00,,0829.3,5.00,0.00,29.5,28.2,00.0,38.2,31.5,32.3,0000.0,0014.78,0007.58,0006.97
2022-08-01 17:19:00,,0829.3,4.99,0.00,29.5,27.6,00.0,38.2,31.3,32.8,0001.1,0015.15,0007.72,0007.05
2022-08-01 17:20:00,,0829.3,4.99,0.00,29.5,27.4,00.0,38.2,31.2,33.3,0001.7,0015.48,0007.84,0007.13
2022-08-01 17:21:00,,0829.3,5.01,0.00,29.4,27.4,00.0,38.2,31.2,33.8,0000.8,0015.46,0007.98,0007.23
2022-08-01 17:22:00,,0829.3,5.01,0.00,29.4,27.5,00.0,38.1,31.1,33.0,0001.1,0015.60,0008.08,0007.32
2022-08-01 17:23:00,,0829.3,4.99,0.00,29.4,27.7,00.0,38.1,31.2,33.1,0000.3,0015.71,0008.18,0007.41
2022-08-01 17:24:00,,0829.3,5.00,0.00,29.4,27.8,00.0,38.2,31.3,33.2,0000.0,0014.40,0008.21,0007.49
2022-08-01 17:25:00,,0829.3,5.00,0.00,29.4,28.0,00.0,38.2,31.3,33.6,0000.0,0014.03,0008.25,0007.55
2022-08-01 17:26:00,,0829.2,5.00,0.00,29.5,28.2,00.0,38.2,31.4,33.7,0000.0,0014.01,0008.29,0007.61
2022-08-01 17:27:00,,0829.2,5.01,0.00,29.5,28.1,00.0,38.2,31.4,33.6,0001.8,0014.04,0008.35,0007.68
2022-08-01 17:28:00,,0829.2,5.00,0.00,29.5,27.5,00.0,38.1,31.2,33.6,0000.3,0013.36,0008.44,0007.74
2022-08-01 17:29:00,,0829.2,5.01,0.00,29.4,27.2,00.0,38.1,31.2,33.6,0001.3,0013.48,0008.48,0007.79
2022-08-01 17:30:00,,0829.2,5.00,0.00,29.4,27.2,00.0,38.1,31.1,33.3,0002.1,0013.65,0008.48,0007.85
2022-08-01 17:31:00,,0829.2,4.99,0.00,29.3,27.3,00.0,38.1,31.1,33.1,0002.5,0013.81,0008.52,0007.91
2022-08-01 17:32:00,,0829.3,5.01,0.00,29.3,27.5,00.0,38.1,31.1,33.6,0002.8,0013.71,0008.50,0007.93
2022-08-01 17:33:00,,0829.2,4.99,0.00,29.3,27.7,00.0,38.1,31.2,33.6,0003.2,0014.80,0008.51,0007.94
2022-08-01 17:34:00,,0829.2,5.00,0.00,29.4,27.9,00.0,38.1,31.3,33.0,0002.8,0014.90,0008.52,0007.95
2022-08-01 17:35:00,,0829.2,5.00,0.00,29.4,28.1,00.0,38.1,31.3,33.1,0002.5,0015.75,0008.54,0007.96
2022-08-01 17:36:00,,0829.2,5.00,0.00,29.4,28.2,00.0,38.1,31.4,33.1,0002.8,0014.99,0008.54,0007.96
2022-08-01 17:37:00,,0829.2,5.02,0.00,29.4,27.9,00.0,38.1,31.3,33.4,0002.6,0014.79,0008.55,0007.97
2022-08-01 17:38:00,,0829.2,4.99,0.00,29.4,27.4,00.0,38.1,31.2,33.9,0002.9,0015.11,0008.57,0007.98
2022-08-01 17:39:00,,0829.3,5.01,0.00,29.4,27.2,00.0,38.1,31.2,33.8,0002.8,0015.66,0008.54,0007.99
2022-08-01 17:40:00,,0829.2,4.99,0.00,29.3,27.3,00.0,38.1,31.1,33.9,0001.2,0016.42,0008.55,0008.00
2022-08-01 17:41:00,,0829.4,5.01,0.00,29.3,27.4,00.0,38.1,31.0,34.3,0000.0,0016.60,0008.58,0007.99
2022-08-01 17:42:00,,0829.3,4.99,0.00,29.3,27.6,00.0,38.1,31.1,33.9,0000.0,0016.20,0008.54,0007.97
2022-08-01 17:43:00,,0829.3,4.99,0.00,29.3,27.8,00.0,38.1,31.2,33.7,0000.0,0016.13,0008.55,0007.96
2022-08-01 17:44:00,,0829.4,5.00,0.00,29.3,28.0,00.0,38.1,31.3,33.6,0000.0,0014.99,0008.57,0007.97
2022-08-01 17:45:00,,0829.4,5.00,0.00,29.4,28.1,00.0,38.1,31.3,33.3,0000.0,0014.93,0008.57,0007.96
2022-08-01 17:46:00,,0829.4,5.01,0.00,29.4,28.3,00.0,38.1,31.4,33.2,0000.0,0014.14,0008.58,0007.95
2022-08-01 17:47:00,,0829.4,5.00,0.00,29.4,28.0,00.0,38.1,31.4,33.2,0000.0,0014.15,0008.58,0007.94
2022-08-01 17:48:00,,0829.3,5.01,0.00,29.4,27.5,00.0,38.1,31.2,33.1,0000.0,0014.15,0008.55,0007.93
2022-08-01 17:49:00,,0829.3,4.99,0.00,29.4,27.2,00.0,38.1,31.2,33.4,0000.0,0014.03,0008.54,0007.90
2022-08-01 17:50:00,,0829.3,5.01,0.00,29.3,27.3,00.0,38.1,31.1,33.8,0000.0,0013.77,0008.52,0007.86
2022-08-01 17:51:00,,0829.4,4.99,0.00,29.3,27.4,00.0,38.1,31.0,33.6,0000.0,0014.39,0008.53,0007.82
2022-08-01 17:52:00,,0829.3,5.01,0.00,29.3,27.6,00.0,38.1,31.1,32.7,0000.0,0014.78,0008.51,0007.79
2022-08-01 17:53:00,,0829.3,4.99,0.00,29.3,27.8,00.0,38.1,31.2,33.1,0000.0,0014.83,0008.48,0007.72
2022-08-01 17:54:00,,0829.3,4.99,0.00,29.3,27.9,00.0,38.1,31.3,32.9,0000.0,0014.68,0008.37,0007.63
2022-08-01 17:55:00,,0829.4,5.01,0.00,29.4,28.1,00.0,38.1,31.3,32.8,0000.6,0015.15,0008.27,0007.56
2022-08-01 17:56:00,,0829.4,5.00,0.00,29.4,28.0,00.0,38.1,31.3,33.7,0000.5,0015.34,0008.22,0007.50
2022-08-01 17:57:00,,0829.2,5.01,0.00,29.4,27.4,00.0,38.1,31.2,33.9,0003.3,0015.98,0008.22,0007.47
2022-08-01 17:58:00,,0829.2,4.99,0.00,29.3,27.2,00.0,38.1,31.2,34.1,0003.3,0016.88,0008.18,0007.43
2022-08-01 17:59:00,,0829.3,5.01,0.00,29.3,27.3,00.0,38.0,31.0,34.5,0003.2,0017.34,0008.14,0007.39
